Auburn, CA

6:19 PM PST on November 16, 2019 (GMT -0800)
Auburn Municipal

Weather History for KAUN - June, 2019

Change the Weather History Date:

Tuesday, June 4, 2019

  Actual Average Record
Temperature  
Mean Temperature 76 °F -  
Max Temperature 87 °F 82 °F 106 °F (1960)
Min Temperature 64 °F 55 °F 46 °F (1956)
Cooling Degree Days 10    
Growing Degree Days 26 (Base 50)    
Moisture  
Dew Point 62 °F    
Average Humidity 63    
Maximum Humidity 83    
Minimum Humidity 40    
Precipitation  
Precipitation 0.00 in - - ()
Sea Level Pressure  
Sea Level Pressure 29.92 in    
Wind  
Wind Speed 3 mph (WSW)    
Max Wind Speed 8 mph    
Max Gust Speed 12 mph    
Visibility 10 miles    
Events      
Averages and records for this station are not official NWS values.
T = Trace of Precipitation, MM = Missing Value Source: NWS Daily Summary

Daily Weather History Graph

Daily Weather History Graph

Search for Another Location

Airport or City:

Astronomy

Jun. 04, 2019 Rise Set
Actual Time 5:39 AM PDT 8:25 PM PDT
Civil Twilight 5:08 AM PDT 8:57 PM PDT
Nautical Twilight 4:28 AM PDT 9:37 PM PDT
Astronomical Twilight 3:43 AM PDT 10:22 PM PDT
Moon 6:53 AM PDT (6/4) 9:59 PM PDT (6/4)
Length of Visible Light 15h 49m
Length of Day
14h 46m
New Moon, 2% of the Moon is Illuminated
Jun 4
New Moon
Jun 9
First Quarter
Jun 17
Full
Jun 25
Last Quarter
Jul 2
New

Hourly Weather History & Observations

Time (PDT) Temp. Heat Index Dew Point Humidity Pressure Visibility Wind Dir Wind Speed Gust Speed Precip Events Conditions
12:15 AM 71.6 °F - 62.6 °F 73% 29.91 in 10.0 mi East 8.1 mph - N/A   Clear
12:35 AM 71.6 °F - 62.6 °F 73% 29.90 in 10.0 mi East 5.8 mph - N/A   Clear
12:55 AM 71.6 °F - 62.6 °F 73% 29.90 in 10.0 mi East 4.6 mph - N/A   Clear
1:15 AM 71.6 °F - 62.6 °F 73% 29.90 in 10.0 mi Calm Calm - N/A   Clear
1:35 AM 69.8 °F - 62.6 °F 78% 29.90 in 10.0 mi East 4.6 mph - N/A   Clear
1:55 AM 69.8 °F - 62.6 °F 78% 29.90 in 10.0 mi Calm Calm - N/A   Clear
2:15 AM 69.8 °F - 62.6 °F 78% 29.90 in 10.0 mi Calm Calm - N/A   Clear
2:35 AM 68.0 °F - 62.6 °F 83% 29.90 in 10.0 mi Calm Calm - N/A   Clear
2:55 AM 69.8 °F - 60.8 °F 73% 29.90 in 10.0 mi Calm Calm - N/A   Clear
3:15 AM 68.0 °F - 60.8 °F 78% 29.90 in 10.0 mi Calm Calm - N/A   Clear
3:35 AM 68.0 °F - 60.8 °F 78% 29.90 in 10.0 mi Calm Calm - N/A   Clear
3:55 AM 68.0 °F - 60.8 °F 78% 29.91 in 10.0 mi Calm Calm - N/A   Clear
4:15 AM 68.0 °F - 60.8 °F 78% 29.90 in 10.0 mi East 4.6 mph - N/A   Clear
4:35 AM 68.0 °F - 60.8 °F 78% 29.91 in 10.0 mi Calm Calm - N/A   Clear
4:55 AM 66.2 °F - 60.8 °F 83% 29.92 in 10.0 mi Calm Calm - N/A   Clear
5:15 AM 66.2 °F - 60.8 °F 83% 29.91 in 10.0 mi Calm Calm - N/A   Clear
5:35 AM 64.4 °F - 59.0 °F 83% 29.92 in 10.0 mi Calm Calm - N/A   Clear
5:55 AM 64.4 °F - 59.0 °F 83% 29.92 in 10.0 mi Calm Calm - N/A   Clear
6:15 AM 66.2 °F - 59.0 °F 78% 29.92 in 10.0 mi Calm Calm - N/A   Clear
6:35 AM 68.0 °F - 60.8 °F 78% 29.93 in 10.0 mi Calm Calm - N/A   Clear
6:55 AM 69.8 °F - 59.0 °F 68% 29.93 in 10.0 mi Calm Calm - N/A   Clear
7:15 AM 71.6 °F - 60.8 °F 69% 29.94 in 10.0 mi Calm Calm - N/A   Clear
7:35 AM 73.4 °F - 59.0 °F 61% 29.94 in 10.0 mi Calm Calm - N/A   Clear
7:55 AM 73.4 °F - 62.6 °F 69% 29.95 in 10.0 mi Calm Calm - N/A   Clear
8:15 AM 75.2 °F - 62.6 °F 65% 29.95 in 10.0 mi Calm Calm - N/A   Clear
8:35 AM 75.2 °F - 60.8 °F 61% 29.95 in 10.0 mi Calm Calm - N/A   Clear
8:55 AM 77.0 °F - 60.8 °F 57% 29.95 in 10.0 mi Calm Calm - N/A   Clear
9:15 AM 77.0 °F - 60.8 °F 57% 29.96 in 10.0 mi Calm Calm - N/A   Clear
9:35 AM 77.0 °F - 62.6 °F 61% 29.96 in 10.0 mi Variable 4.6 mph - N/A   Clear
9:55 AM 78.8 °F - 62.6 °F 57% 29.96 in 10.0 mi West 4.6 mph - N/A   Clear
10:15 AM 78.8 °F - 62.6 °F 57% 29.96 in 10.0 mi Calm Calm - N/A   Clear
10:35 AM 80.6 °F 82.3 °F 64.4 °F 58% 29.96 in 10.0 mi West 5.8 mph - N/A   Clear
10:55 AM 80.6 °F 82.7 °F 66.2 °F 61% 29.96 in 10.0 mi WNW 5.8 mph - N/A   Clear
11:15 AM 80.6 °F 82.7 °F 66.2 °F 61% 29.96 in 9.0 mi Calm Calm - N/A   Clear
11:35 AM 82.4 °F 84.6 °F 66.2 °F 58% 29.96 in 10.0 mi Variable 3.5 mph - N/A   Clear
11:55 AM 82.4 °F 85.4 °F 68.0 °F 62% 29.96 in 10.0 mi Variable 4.6 mph - N/A   Clear
12:15 PM 82.4 °F 84.6 °F 66.2 °F 58% 29.96 in 10.0 mi WSW 6.9 mph - N/A   Clear
12:35 PM 82.4 °F 84.6 °F 66.2 °F 58% 29.96 in 10.0 mi Calm Calm - N/A   Clear
12:55 PM 82.4 °F 84.6 °F 66.2 °F 58% 29.96 in 10.0 mi Calm Calm - N/A   Clear
1:15 PM 84.2 °F 87.3 °F 68.0 °F 58% 29.95 in 10.0 mi Variable 4.6 mph - N/A   Clear
1:35 PM 84.2 °F 86.6 °F 66.2 °F 55% 29.95 in 10.0 mi Calm Calm - N/A   Clear
1:55 PM 84.2 °F 86.6 °F 66.2 °F 55% 29.95 in 10.0 mi Variable 4.6 mph - N/A   Clear
2:15 PM 84.2 °F 86.6 °F 66.2 °F 55% 29.95 in 10.0 mi WSW 5.8 mph - N/A   Clear
2:35 PM 84.2 °F 85.6 °F 64.4 °F 51% 29.94 in 10.0 mi West 4.6 mph - N/A   Clear
2:55 PM 86.0 °F 87.3 °F 64.4 °F 48% 29.93 in 10.0 mi WSW 4.6 mph - N/A   Clear
3:15 PM 86.0 °F 86.6 °F 62.6 °F 45% 29.93 in 10.0 mi Calm Calm - N/A   Clear
3:35 PM 86.0 °F 86.6 °F 62.6 °F 45% 29.92 in 10.0 mi West 6.9 mph - N/A   Clear
3:55 PM 86.0 °F 86.6 °F 62.6 °F 45% 29.92 in 10.0 mi Calm Calm - N/A   Clear
4:15 PM 87.8 °F 88.5 °F 62.6 °F 43% 29.92 in 10.0 mi WSW 5.8 mph - N/A   Clear
4:35 PM 86.0 °F 86.6 °F 62.6 °F 45% 29.91 in 10.0 mi WSW 3.5 mph 11.5 mph N/A   Clear
4:55 PM 86.0 °F 86.6 °F 62.6 °F 45% 29.90 in 10.0 mi WNW 4.6 mph - N/A   Clear
5:15 PM 87.8 °F 88.5 °F 62.6 °F 43% 29.90 in 10.0 mi Calm Calm - N/A   Clear
5:35 PM 87.8 °F 87.6 °F 60.8 °F 40% 29.90 in 10.0 mi Variable 4.6 mph - N/A   Clear
5:55 PM 87.8 °F 88.5 °F 62.6 °F 43% 29.89 in 10.0 mi Calm Calm - N/A   Clear
6:15 PM 87.8 °F 88.5 °F 62.6 °F 43% 29.89 in 10.0 mi Calm Calm - N/A   Clear
6:35 PM 86.0 °F 86.1 °F 60.8 °F 43% 29.89 in 10.0 mi Calm Calm - N/A   Clear
6:55 PM 86.0 °F 86.1 °F 60.8 °F 43% 29.89 in 10.0 mi Calm Calm - N/A   Clear
7:15 PM 84.2 °F 85.0 °F 62.6 °F 48% 29.89 in 10.0 mi Calm Calm - N/A   Clear
7:35 PM 84.2 °F 85.0 °F 62.6 °F 48% 29.89 in 10.0 mi Calm Calm - N/A   Clear
7:55 PM 82.4 °F 82.9 °F 60.8 °F 48% 29.89 in 10.0 mi Calm Calm - N/A   Clear
8:15 PM 77.0 °F - 64.4 °F 65% 29.90 in 10.0 mi Calm Calm - N/A   Clear
8:55 PM 73.4 °F - 62.6 °F 69% 29.90 in 10.0 mi Calm Calm - N/A   Clear
9:15 PM 71.6 °F - 62.6 °F 73% 29.90 in 10.0 mi Calm Calm - N/A   Clear
9:35 PM 71.6 °F - 62.6 °F 73% 29.91 in 10.0 mi Calm Calm - N/A   Clear
9:55 PM 71.6 °F - 62.6 °F 73% 29.91 in 10.0 mi Calm Calm - N/A   Clear
10:15 PM 73.4 °F - 60.8 °F 65% 29.91 in 10.0 mi East 4.6 mph - N/A   Clear
10:35 PM 73.4 °F - 60.8 °F 65% 29.92 in 10.0 mi East 8.1 mph - N/A   Clear
10:55 PM 73.4 °F - 60.8 °F 65% 29.92 in 10.0 mi East 8.1 mph - N/A   Clear
11:15 PM 73.4 °F - 60.8 °F 65% 29.92 in 10.0 mi East 3.5 mph - N/A   Clear
11:35 PM 73.4 °F - 60.8 °F 65% 29.92 in 10.0 mi Calm Calm - N/A   Clear
11:55 PM 73.4 °F - 60.8 °F 65% 29.92 in 10.0 mi Calm Calm - N/A   Clear